This is the latest recevied weather packets stored in our database for station/object KA0EGE. If no packets are shown the sender has not sent any weather packets the latest 10 day(s).
| Time | Temp. | Humidity | Pressure | Rain* | Wind** | Luminosity | Snow |
|---|---|---|---|---|---|---|---|
| 1777723853 | 12.22° C | 99% | 1014.4 hPa | 4.83 mm | - | 37 W/m² | - |
| 1777723549 | 12.22° C | 99% | 1014.8 hPa | 4.83 mm | - | 10 W/m² | - |
| 1777723246 | 12.22° C | 99% | 1014.3 hPa | 6.1 mm | - | 5 W/m² | - |
| 1777722944 | 12.22° C | 99% | 1014.2 hPa | 4.83 mm | - | 4 W/m² | - |
| 1777722639 | 12.22° C | 99% | 1014.5 hPa | 1.78 mm | - | 5 W/m² | - |
| 1777722336 | 12.22° C | 99% | 1014.5 hPa | 0 mm | - | 9 W/m² | - |
| 1777722033 | 12.22° C | 99% | 1014.1 hPa | 0 mm | - | 11 W/m² | - |
| 1777721731 | 12.22° C | 99% | 1013.8 hPa | 0 mm | - | 8 W/m² | - |
| 1777721430 | 12.22° C | 99% | 1013.8 hPa | 1.27 mm | - | 9 W/m² | - |
| 1777721127 | 12.22° C | 99% | 1013.7 hPa | 3.05 mm | - | 10 W/m² | - |
| 1777720824 | 12.22° C | 99% | 1014.4 hPa | 4.32 mm | - | 5 W/m² | - |
| 1777720521 | 12.78° C | 99% | 1014.6 hPa | 3.05 mm | - | 1 W/m² | - |
| 1777720219 | 12.78° C | 99% | 1015 hPa | 4.83 mm | - | 0 W/m² | - |
| 1777719916 | 12.22° C | 99% | 1014.6 hPa | 7.87 mm | - | 0 W/m² | - |
| 1777719614 | 12.22° C | 99% | 1014.5 hPa | 10.67 mm | - | 0 W/m² | - |
| 1777719311 | 12.78° C | 99% | 1014.9 hPa | 10.16 mm | - | 0 W/m² | - |
| 1777719008 | 12.78° C | 99% | 1015.1 hPa | 6.1 mm | - | 0 W/m² | - |
| 1777718705 | 12.78° C | 99% | 1014.6 hPa | 0 mm | - | 0 W/m² | - |
| 1777718403 | 12.78° C | 99% | 1013.6 hPa | 1.78 mm | - | 0 W/m² | - |
| 1777718100 | 12.78° C | 99% | 1013.4 hPa | 1.78 mm | - | 0 W/m² | - |
| 1777717797 | 12.78° C | 99% | 1013.3 hPa | 0 mm | - | 0 W/m² | - |
| 1777717494 | 12.78° C | 99% | 1012.8 hPa | 1.27 mm | - | 0 W/m² | - |
| 1777717190 | 13.33° C | 99% | 1013.8 hPa | 3.05 mm | - | 0 W/m² | - |
| 1777716889 | 13.33° C | 99% | 1014.2 hPa | 4.83 mm | - | 0 W/m² | - |
| 1777716587 | 13.33° C | 99% | 1013.7 hPa | 6.1 mm | - | 0 W/m² | - |
* Rain latest hour (hover to see other rain measurements)
** Current wind speed in m/s (hover to see current wind gust speed)